Hourly Weather Roundup
Issued by NWS Central Illinois

Home | Current Version | Previous Version | Text Only | Print | Product List | Glossary On
Versions: 1 2 3 4 5 6 7 8 9 10 11 12 13 14 15 16 17 18 19 20 21 22 23 24 25 26 27 28 29 30 31 32 33 34 35 36 37 38 39 40 41 42 43 44 45 46 47 48 49 50
000
NZUS43 KILX 011110
HWRILX

AREA WEATHER ROUNDUP
NATIONAL WEATHER SERVICE, LINCOLN IL
600 AM CDT FRI AUG 01 2014


CITY           SKY/WX    TMP DP  RH WIND       PRES   REMARKS
BLOOMINGTON    CLOUDY    64  59  84 S5        30.10R
CHAMPAIGN      MOCLDY    61  60  97 E3        30.10R
DECATUR        PTCLDY    59  56  89 CALM      30.09R
FLORA          PTCLDY    57  56  97 CALM      30.10S FOG
GALESBURG      MOCLDY    64  61  91 CALM      30.08R
JACKSONVILLE   PTCLDY    62  61  94 CALM      30.08S
LACON          CLOUDY    63  61  92 CALM      30.07R
LAWRENCEVILLE  FOG       60  59  96 CALM      30.10R VSB 1
LITCHFIELD     CLEAR     60  59  96 CALM      30.08S
$$


CITY           SKY/WX    TMP DP  RH WIND       PRES   REMARKS
LINCOLN        PTCLDY    62  59  91 CALM      30.06S
MACOMB         CLEAR     59  59 100 CALM      30.10R
MATTOON          N/A     66  62  87 SW6       30.08S
MT CARMEL AP   PTCLDY    59  59 100 CALM      30.09S
OLNEY-NOBLE AP PTCLDY    57  57 100 CALM      30.10R FOG
PARIS            N/A     56  56  97 CALM      30.11R FOG
PEORIA         CLOUDY    67  62  84 CALM      30.08S
PONTIAC        MOCLDY    61  61 100 CALM      30.08S FOG
RANTOUL        MOCLDY    63  59  87 CALM      30.10S
ROBINSON       FOG       58  58  99 CALM      30.11R VSB<1/4
SPRINGFIELD    PTCLDY    60  58  92 CALM      30.09S
TAYLORVILLE    PTCLDY    59  57  94 CALM      30.08S
$$

...REGIONAL REPORTS...


CITY           SKY/WX    TMP DP  RH WIND       PRES   REMARKS
CHICAGO O`HARE PTCLDY    63  57  81 W6        30.06S
KANKAKEE       PTCLDY    59  57  96 CALM      30.09S
MOLINE         LGT RAIN  64  57  78 S15       30.07R
MOUNT VERNON   CLOUDY    57  54  88 CALM      30.10S VSB 1/4
PITTSFIELD     PTCLDY    60  57  91 CALM      30.08S
QUINCY         MOCLDY    66  58  75 SE3       30.07R
ROCKFORD       MOCLDY    59  56  89 S5        30.09R
$$


CITY           SKY/WX    TMP DP  RH WIND       PRES   REMARKS
BURLINGTON     CLOUDY    65  63  93 CALM      30.06S
CEDAR RAPIDS   CLEAR     58  57  97 S3        30.06S
DES MOINES     PTCLDY    63  60  90 CALM      30.07R
KIRKSVILLE     PTCLDY    62  59  90 W3        30.08S
OTTUMWA        PTCLDY    62  59  90 CALM      30.06S
ST LOUIS       PTCLDY    69  63  81 CALM      30.08S
$$


CITY           SKY/WX    TMP DP  RH WIND       PRES   REMARKS
TERRE HAUTE    FOG       57  55  93 CALM      30.10R VSB 1/2
EVANSVILLE     PTCLDY    64  60  87 CALM      30.09R
INDIANAPOLIS   PTCLDY    62  60  93 CALM      30.10R
LAFAYETTE      CLEAR     57  56  96 CALM      30.10R
MADISON        CLEAR     58  56  93 CALM      30.05S FOG
MILWAUKEE      PTCLDY    65  57  75 W5        30.05R
$$




USA.gov is the U.S. government's official web portal to all federal, state and local government web resources and services.